Location: ??
(35.4627°N, 139.3695°E)
Time: 05:00:18
(UTC+00:00)

EO 1 Delta rocket - Pass Details

Date: 25 November 2020
Orbit: 698 x 1791 km, 95.4° (Epoch: 20 January)

Event Time Altitude Azimuth Distance (km) Brightness Sun altitude
Rises 20:35:20 0° 172° (S) 3,730 7.9 -10.9°
Reaches altitude 10° 20:38:02 10° 173° (S) 2,638 7.1 -10.4°
Maximum altitude 20:43:45 80° 260° (W) 819 4.1 -9.3°
Drops below altitude 10° 20:48:34 10° 348° (NNW) 2,231 6.1 -8.4°
Sets 20:50:42 0° 350° (N) 3,114 6.9 -7.9°
